FW0827 Weather Reports


Display with metric or nautical units.
time (UTC)temp
F
wind
direction
speed
MPH
gust
MPH
rain 1hr
in
rain 24hr
in
rain mn
in
humidity
%
barometer
mb
20240527071343 67 332 0.0 0.0 0.00 0.00 0.00 97 1028.8
20240527071202 67 272 0.0 3.0 0.00 0.00 0.00 97 1012.1
20240527070842 67 238 0.0 3.0 0.00 0.00 0.00 97 1028.6
20240527070701 67 167 0.0 0.0 0.00 0.00 0.00 97 1011.9
20240527070342 67 160 0.0 0.0 0.00 0.00 0.00 97 1028.6
20240527070201 67 126 0.0 0.0 0.00 0.00 0.00 97 1012.0
20240527065840 68 240 0.0 0.0 0.00 0.00 0.00 96 1028.7
20240527065702 67 240 0.0 0.0 0.00 0.00 0.00 96 1011.8
20240527065339 68 241 0.0 0.0 0.00 0.00 0.00 96 1028.7
20240527065201 67 241 0.0 0.0 0.00 0.00 0.00 96 1012.0
20240527064837 68 241 0.0 0.0 0.00 0.00 0.00 96 1028.7
20240527064701 68 240 0.0 0.0 0.00 0.00 0.00 96 1011.8
20240527064336 68 240 0.0 0.0 0.00 0.00 0.00 96 1028.6
20240527063835 68 245 0.0 0.0 0.00 0.00 0.00 96 1028.5
20240527063334 68 241 0.0 0.0 0.00 0.00 0.00 95 1028.7
20240527063201 68 241 0.0 0.0 0.00 0.00 0.00 95 1012.2
20240527062833 68 241 0.0 0.0 0.00 0.00 0.00 95 1028.8
20240527062701 68 241 0.0 0.0 0.00 0.00 0.00 95 1011.9
20240527062332 68 242 0.0 0.0 0.00 0.00 0.00 96 1028.7
20240527062201 68 242 0.0 0.0 0.00 0.00 0.00 96 1012.0
20240527061830 68 242 0.0 0.0 0.00 0.00 0.00 96 1028.6
20240527061702 68 242 0.0 0.0 0.00 0.00 0.00 96 1012.0
20240527061331 68 242 0.0 0.0 0.00 0.00 0.00 96 1028.9
20240527061202 67 242 0.0 0.0 0.00 0.00 0.00 96 1012.0
20240527060830 68 242 0.0 0.0 0.00 0.00 0.00 96 1028.7
20240527060328 68 242 0.0 0.0 0.00 0.00 0.00 96 1028.7
20240527055826 68 242 0.0 0.0 0.00 0.00 0.00 95 1028.8
20240527055702 68 242 0.0 0.0 0.00 0.00 0.00 95 1012.0
20240527055324 68 250 0.0 0.0 0.00 0.00 0.00 95 1028.9
20240527055202 68 250 0.0 0.0 0.00 0.00 0.00 95 1012.2
20240527054824 68 271 0.0 0.0 0.00 0.00 0.00 95 1028.9
20240527054701 68 272 0.0 0.0 0.00 0.00 0.00 95 1012.0
20240527054322 68 272 0.0 0.0 0.00 0.00 0.00 95 1029.2
20240527053820 68 272 0.0 0.0 0.00 0.00 0.00 94 1029.1
20240527053701 68 272 0.0 0.0 0.00 0.00 0.00 94 1012.3
20240527053320 69 272 0.0 0.0 0.00 0.00 0.00 94 1028.9
20240527053201 69 250 0.0 0.0 0.00 0.00 0.00 94 1012.5
20240527052818 69 254 0.0 0.0 0.00 0.00 0.00 94 1029.2
20240527052702 69 264 0.0 1.0 0.00 0.00 0.00 94 1012.5
20240527052317 69 254 0.0 0.0 0.00 0.00 0.00 94 1029.2
20240527052202 69 254 0.0 0.0 0.00 0.00 0.00 94 1012.3
20240527051815 69 289 0.0 0.0 0.00 0.00 0.00 94 1028.9
20240527051702 69 257 0.0 1.0 0.00 0.00 0.00 94 1012.3
20240527051313 69 257 0.0 0.0 0.00 0.00 0.00 94 1029.2
20240527051201 69 251 0.0 0.0 0.00 0.00 0.00 94 1012.3
20240527050812 69 246 0.0 0.0 0.00 0.00 0.00 94 1029.3
20240527050702 69 246 0.0 1.0 0.00 0.00 0.00 94 1012.4
20240527050311 69 257 0.0 0.0 0.00 0.00 0.00 94 1029.2
20240527050202 69 257 0.0 0.0 0.00 0.00 0.00 94 1012.6
20240527045810 69 257 0.0 0.0 0.00 0.00 0.00 94 1029.5
20240527045702 69 290 0.0 0.0 0.00 0.00 0.00 94 1012.7
20240527045308 69 216 0.0 0.0 0.00 0.00 0.00 94 1029.2
20240527045202 69 216 0.0 0.0 0.00 0.00 0.00 94 1012.4
20240527044808 69 215 0.0 0.0 0.00 0.00 0.00 94 1029.0
20240527044702 69 228 0.0 0.0 0.00 0.00 0.00 94 1012.4
20240527044307 69 292 0.0 0.0 0.00 0.00 0.00 94 1029.4
20240527044202 69 293 0.0 0.0 0.00 0.00 0.00 94 1012.7
20240527043806 69 314 0.0 0.0 0.00 0.00 0.00 93 1029.5
20240527043702 69 315 0.0 1.0 0.00 0.00 0.00 93 1012.7
20240527043307 69 157 0.0 2.0 0.00 0.00 0.00 93 1029.4
20240527043202 69 186 0.0 1.0 0.00 0.00 0.00 93 1012.7
20240527042805 69 187 0.0 0.0 0.00 0.00 0.00 93 1029.3
20240527042703 69 187 0.0 0.0 0.00 0.00 0.00 93 1012.7
20240527042304 69 186 0.0 0.0 0.00 0.00 0.00 92 1029.4
20240527042201 69 185 0.0 3.0 0.00 0.00 0.00 92 1013.0
20240527041803 69 268 0.0 0.0 0.00 0.00 0.00 92 1029.7
20240527041702 69 268 0.0 1.0 0.00 0.00 0.00 92 1013.1
20240527041301 69 220 0.0 2.0 0.00 0.00 0.00 92 1029.8
20240527041202 69 249 0.0 0.0 0.00 0.00 0.00 92 1013.1
20240527040800 69 254 0.0 0.0 0.00 0.00 0.00 92 1030.0
20240527040259 69 226 0.0 0.0 0.00 0.00 0.00 92 1030.0
20240527040202 69 225 0.0 0.0 0.00 0.00 0.00 92 1013.3
20240527035758 69 225 0.0 0.0 0.00 0.00 0.00 92 1030.0
20240527035701 69 224 0.0 0.0 0.00 0.00 0.00 92 1013.2
20240527035257 70 211 0.0 0.0 0.00 0.00 0.00 92 1029.9
20240527035202 70 211 0.0 1.0 0.00 0.00 0.00 92 1013.4
20240527034755 70 211 0.0 2.0 0.00 0.00 0.00 91 1030.1
20240527034702 70 239 0.0 1.0 0.00 0.00 0.00 92 1013.3
20240527034254 69 215 0.0 0.0 0.00 0.00 0.00 92 1030.2
20240527034202 69 251 0.0 0.0 0.00 0.00 0.00 92 1013.5
20240527033753 69 252 0.0 0.0 0.00 0.00 0.00 92 1030.0
20240527033252 69 202 0.0 2.0 0.00 0.00 0.00 92 1029.9
20240527033202 69 263 0.0 0.0 0.00 0.00 0.00 92 1013.4
20240527032750 69 252 0.0 0.0 0.00 0.00 0.00 92 1030.0
20240527032249 69 266 0.0 0.0 0.00 0.00 0.00 93 1030.3
20240527032201 69 279 0.0 0.0 0.00 0.00 0.00 93 1013.6
20240527031749 69 279 0.0 0.0 0.00 0.00 0.00 93 1030.1
20240527031702 69 281 0.0 0.0 0.00 0.00 0.00 93 1013.6
20240527031248 69 273 0.0 0.0 0.00 0.00 0.00 93 1030.3
20240527031201 69 274 0.0 0.0 0.00 0.00 0.00 93 1013.6
20240527030746 69 274 0.0 0.0 0.00 0.00 0.00 93 1030.2
20240527030702 69 274 0.0 0.0 0.00 0.00 0.00 92 1013.6
20240527030244 69 273 0.0 0.0 0.00 0.00 0.00 92 1030.5
20240527025742 69 161 0.0 0.0 0.00 0.00 0.00 91 1030.4
20240527025702 69 161 0.0 0.0 0.00 0.00 0.00 91 1013.7
20240527025241 69 161 0.0 0.0 0.00 0.00 0.00 91 1030.3
20240527025202 69 161 0.0 0.0 0.00 0.00 0.00 90 1013.6
20240527024739 69 161 0.0 0.0 0.00 0.00 0.00 90 1030.0
20240527024702 69 161 0.0 0.0 0.00 0.00 0.00 90 1013.4
20240527024238 69 161 0.0 0.0 0.00 0.00 0.00 89 1030.0
20240527024202 69 161 0.0 0.0 0.00 0.00 0.00 89 1013.3
20240527023737 70 161 0.0 0.0 0.00 0.00 0.00 89 1029.8
20240527023701 70 161 0.0 0.0 0.00 0.00 0.00 88 1013.1
20240527023236 70 161 0.0 0.0 0.00 0.00 0.00 88 1029.9
20240527023202 70 161 0.0 0.0 0.00 0.00 0.00 88 1013.2
20240527022735 70 161 0.0 0.0 0.00 0.00 0.00 88 1029.6
20240527022234 70 161 0.0 0.0 0.00 0.00 0.00 87 1029.9
20240527022202 70 161 0.0 0.0 0.00 0.00 0.00 88 1013.2
20240527021732 70 161 0.0 0.0 0.00 0.00 0.00 87 1029.8
20240527021703 70 161 0.0 0.0 0.00 0.00 0.00 86 1013.3
20240527021231 71 161 0.0 0.0 0.00 0.00 0.00 86 1029.7
20240527020730 70 161 0.0 0.0 0.00 0.00 0.00 86 1029.7
20240527020230 70 161 0.0 0.0 0.00 0.00 0.00 86 1029.8
20240527020202 70 161 0.0 0.0 0.00 0.00 0.00 86 1013.4
20240527015729 70 161 0.0 0.0 0.00 0.00 0.00 86 1030.0
20240527015228 71 161 0.0 0.0 0.00 0.00 0.00 86 1029.7
20240527015202 71 161 0.0 0.0 0.00 0.00 0.00 86 1013.1
20240527014726 71 160 0.0 0.0 0.00 0.00 0.00 85 1029.8
20240527014702 71 160 0.0 0.0 0.00 0.00 0.00 85 1013.4
20240527014225 71 161 0.0 0.0 0.00 0.00 0.00 84 1029.6
20240527014202 71 161 0.0 0.0 0.00 0.00 0.00 85 1012.8
20240527013724 71 161 0.0 0.0 0.00 0.00 0.00 84 1029.5
20240527013701 71 161 0.0 0.0 0.00 0.00 0.00 84 1012.8
20240527013220 71 160 0.0 0.0 0.00 0.00 0.00 83 1029.6
20240527013202 71 160 0.0 0.0 0.00 0.00 0.00 83 1012.9
20240527012720 71 160 0.0 0.0 0.00 0.00 0.00 83 1029.4
20240527012218 72 161 0.0 2.0 0.00 0.00 0.00 82 1029.3
20240527012202 72 160 0.0 1.0 0.00 0.00 0.00 82 1012.7
20240527011717 72 148 0.0 0.0 0.00 0.00 0.00 81 1029.4
20240527011702 72 148 0.0 0.0 0.00 0.00 0.00 81 1012.4
20240527011216 72 148 0.0 0.0 0.00 0.00 0.00 81 1029.3
20240527011202 72 148 0.0 0.0 0.00 0.00 0.00 81 1012.6
20240527010716 72 151 0.0 0.0 0.00 0.00 0.00 80 1029.2
20240527010702 72 150 0.0 0.0 0.00 0.00 0.00 81 1012.5
20240527010214 72 151 0.0 0.0 0.00 0.00 0.00 80 1029.6
20240527010203 72 151 0.0 0.0 0.00 0.00 0.00 80 1012.8
20240527005713 72 151 0.0 0.0 0.00 0.00 0.00 80 1029.3
20240527005702 72 151 0.0 0.0 0.00 0.00 0.00 80 1012.7
20240527005212 72 151 0.0 0.0 0.00 0.00 0.00 80 1029.4
20240527005202 72 151 0.0 0.0 0.00 0.00 0.00 81 1012.7
20240527004710 72 151 0.0 0.0 0.00 0.00 0.00 80 1029.2
20240527004702 72 151 0.0 0.0 0.00 0.00 0.00 80 1012.4
20240527004209 73 151 0.0 0.0 0.00 0.00 0.00 80 1029.4
20240527004202 73 151 0.0 0.0 0.00 0.00 0.00 80 1012.7
20240527003707 73 151 0.0 0.0 0.00 0.00 0.00 79 1029.3
20240527003703 73 151 0.0 0.0 0.00 0.00 0.00 79 1012.7
20240527003206 73 151 0.0 0.0 0.00 0.00 0.00 79 1029.3
20240527003202 73 151 0.0 0.0 0.00 0.00 0.00 79 1012.6
20240527002705 73 151 0.0 0.0 0.00 0.00 0.00 79 1029.2
20240527002702 73 151 0.0 0.0 0.00 0.00 0.00 79 1012.5
20240527002204 74 151 0.0 0.0 0.00 0.00 0.00 78 1029.3
20240527002202 74 151 0.0 3.0 0.00 0.00 0.00 78 1012.6
20240527001703 74 202 0.0 0.0 0.00 0.00 0.00 77 1029.5
20240527001202 74 224 0.0 0.0 0.00 0.00 0.00 77 1029.6
20240527000702 74 224 0.0 1.0 0.00 0.00 0.00 77 1013.1
20240527000202 74 217 0.0 1.0 0.00 0.00 0.00 77 1012.9
20240527000200 75 227 0.0 2.0 0.00 0.00 0.00 77 1029.7
20240526235702 75 216 0.0 1.0 0.00 0.00 0.00 78 1013.0
20240526235658 75 216 0.0 0.0 0.00 0.00 0.00 77 1029.8
20240526235203 75 224 0.0 1.0 0.00 0.00 0.00 79 1013.2
20240526235157 75 215 0.0 2.0 0.00 0.00 0.00 78 1029.9
20240526234702 75 225 0.0 0.0 0.00 0.00 0.00 79 1013.1
20240526234656 75 225 0.0 0.0 0.00 0.00 0.00 79 1029.7
20240526234155 76 211 0.0 0.0 0.00 0.00 0.00 78 1029.7
20240526233654 76 225 0.0 0.0 0.00 0.00 0.00 78 1029.7
20240526233202 76 226 0.0 0.0 0.00 0.00 0.00 79 1012.8
20240526233153 76 226 0.0 0.0 0.00 0.00 0.00 78 1029.5
20240526232703 77 225 0.0 0.0 0.00 0.00 0.00 78 1012.7
20240526232652 77 226 0.0 0.0 0.00 0.00 0.00 78 1029.4
20240526232202 77 180 1.0 8.0 0.00 0.00 0.00 78 1012.8
20240526232151 77 225 0.0 0.0 0.00 0.00 0.00 78 1029.6
20240526231702 78 234 1.0 8.0 0.00 0.00 0.00 77 1012.8
20240526231650 78 193 1.0 8.0 0.00 0.00 0.00 77 1029.4
20240526231203 79 248 0.0 1.0 0.00 0.00 0.00 76 1012.9
20240526231149 78 237 0.0 0.0 0.00 0.00 0.00 77 1029.3
20240526230707 79 250 0.0 3.0 0.00 0.00 0.00 76 1012.7
20240526230648 79 250 0.0 2.0 0.00 0.00 0.00 76 1029.3
20240526230203 79 244 1.0 5.0 0.00 0.00 0.00 75 1012.7
20240526230147 79 245 0.0 3.0 0.00 0.00 0.00 76 1029.5
20240526225646 80 189 3.0 5.0 0.00 0.00 0.00 74 1029.4
20240526225203 80 193 1.0 3.0 0.00 0.00 0.00 74 1012.7
20240526225144 80 237 1.0 3.0 0.00 0.00 0.00 74 1029.4
20240526224702 80 230 0.0 1.0 0.00 0.00 0.00 73 1012.7
20240526224644 80 210 0.0 2.0 0.00 0.00 0.00 74 1029.3
20240526224202 80 250 0.0 1.0 0.00 0.00 0.00 73 1012.7
20240526224143 80 254 0.0 0.0 0.00 0.00 0.00 73 1029.4
20240526223702 80 238 1.0 3.0 0.00 0.00 0.00 73 1012.5
20240526223641 80 228 0.0 2.0 0.00 0.00 0.00 73 1029.3
20240526223202 80 243 0.0 3.0 0.00 0.00 0.00 74 1012.7
20240526223140 80 244 0.0 0.0 0.00 0.00 0.00 75 1029.3
20240526222702 81 241 0.0 0.0 0.00 0.00 0.00 74 1012.5
20240526222638 81 241 0.0 0.0 0.00 0.00 0.00 74 1029.2
20240526222137 81 241 0.0 0.0 0.00 0.00 0.00 73 1029.3
20240526221702 81 241 0.0 3.0 0.00 0.00 0.00 73 1012.4
20240526221635 81 241 0.0 2.0 0.00 0.00 0.00 73 1029.1
20240526221203 81 241 0.0 3.0 0.00 0.00 0.00 72 1012.2
20240526221134 82 219 0.0 3.0 0.00 0.00 0.00 72 1028.8
20240526220702 83 238 0.0 5.0 0.00 0.00 0.00 70 1012.3
20240526220633 83 235 0.0 0.0 0.00 0.00 0.00 70 1029.0
20240526220202 84 203 1.0 3.0 0.00 0.00 0.00 63 1012.4
20240526220131 84 204 1.0 3.0 0.00 0.00 0.00 63 1029.1
20240526215630 84 233 0.0 0.0 0.00 0.00 0.00 61 1029.0
20240526215202 83 233 0.0 0.0 0.00 0.00 0.00 62 1012.5
20240526215130 83 233 0.0 0.0 0.00 0.00 0.00 62 1029.2
20240526214627 83 233 0.0 0.0 0.00 0.00 0.00 60 1029.0
20240526214202 83 233 0.0 0.0 0.00 0.00 0.00 59 1012.3
20240526214126 83 233 0.0 0.0 0.00 0.00 0.00 59 1029.0
20240526213702 83 233 0.0 0.0 0.00 0.00 0.00 60 1012.4
20240526213624 84 233 0.0 0.0 0.00 0.00 0.00 60 1029.0
20240526213123 84 233 0.0 0.0 0.00 0.00 0.00 57 1028.8
20240526212622 84 233 0.0 2.0 0.00 0.00 0.00 55 1028.9
20240526212203 84 239 0.0 1.0 0.00 0.00 0.00 54 1012.2
20240526212120 84 239 0.0 0.0 0.00 0.00 0.00 53 1028.8
20240526211703 85 269 0.0 1.0 0.00 0.00 0.00 54 1012.3
20240526211618 85 276 0.0 0.0 0.00 0.00 0.00 54 1029.0
20240526211105 85 276 0.0 0.0 0.00 0.00 0.00 54 1029.0
20240526210702 85 276 0.0 0.0 0.00 0.00 0.00 55 1012.3
20240526210604 85 276 0.0 0.0 0.00 0.00 0.00 55 1029.0
20240526210202 84 276 0.0 0.0 0.00 0.00 0.00 54 1012.3
20240526210102 84 276 0.0 0.0 0.00 0.00 0.00 53 1029.0
20240526205702 84 258 0.0 0.0 0.00 0.00 0.00 56 1012.4
20240526205601 84 258 0.0 0.0 0.00 0.00 0.00 56 1029.1
20240526205202 84 232 0.0 0.0 0.00 0.00 0.00 56 1012.3
20240526205100 84 229 0.0 0.0 0.00 0.00 0.00 56 1029.0
20240526204702 85 279 0.0 0.0 0.00 0.00 0.00 58 1012.3
20240526204559 85 279 0.0 0.0 0.00 0.00 0.00 58 1029.0
20240526204059 85 326 0.0 0.0 0.00 0.00 0.00 58 1029.2
20240526203702 85 17 0.0 0.0 0.00 0.00 0.00 59 1012.3
20240526203557 85 17 0.0 0.0 0.00 0.00 0.00 59 1028.9
20240526203204 85 17 0.0 1.0 0.00 0.00 0.00 58 1012.2
20240526203055 85 17 0.0 0.0 0.00 0.00 0.00 58 1028.9
20240526202703 86 19 0.0 1.0 0.00 0.00 0.00 59 1012.3
20240526202555 87 19 0.0 2.0 0.00 0.00 0.00 59 1029.0
20240526202053 87 115 0.0 0.0 0.00 0.00 0.00 55 1029.0
20240526201702 86 115 0.0 0.0 0.00 0.00 0.00 56 1012.3
20240526201551 86 115 0.0 0.0 0.00 0.00 0.00 56 1029.1
20240526201202 85 304 0.0 0.0 0.00 0.00 0.00 60 1012.2
20240526201051 85 302 0.0 0.0 0.00 0.00 0.00 60 1028.9
20240526200702 85 309 0.0 0.0 0.00 0.00 0.00 61 1012.2
20240526200547 85 309 0.0 0.0 0.00 0.00 0.00 61 1028.9
20240526200202 84 309 0.0 7.0 0.00 0.00 0.00 57 1012.1
20240526200046 84 309 0.0 0.0 0.00 0.00 0.00 57 1028.8
20240526195703 84 324 2.0 7.0 0.00 0.00 0.00 60 1012.2
20240526195545 84 323 1.0 7.0 0.00 0.00 0.00 60 1028.9
20240526195044 86 359 0.0 0.0 0.00 0.00 0.00 58 1029.1
20240526194543 86 334 0.0 2.0 0.00 0.00 0.00 59 1029.0
20240526194042 86 147 0.0 0.0 0.00 0.00 0.00 58 1029.4
20240526193706 85 147 0.0 3.0 0.00 0.00 0.00 58 1012.7
20240526193539 85 147 0.0 0.0 0.00 0.00 0.00 58 1029.4
20240526193202 86 63 0.0 3.0 0.00 0.00 0.00 59 1012.7
20240526193038 86 55 0.0 0.0 0.00 0.00 0.00 59 1029.3
20240526192703 85 55 0.0 1.0 0.00 0.00 0.00 61 1012.7
20240526192537 85 55 0.0 0.0 0.00 0.00 0.00 61 1029.4
20240526192036 86 342 0.0 0.0 0.00 0.00 0.00 63 1029.4
20240526191702 85 342 0.0 0.0 0.00 0.00 0.00 59 1012.8
20240526191535 85 342 0.0 0.0 0.00 0.00 0.00 62 1029.5
20240526191203 85 6 0.0 7.0 0.00 0.00 0.00 64 1013.0
20240526191035 85 11 0.0 7.0 0.00 0.00 0.00 61 1029.6
20240526190533 86 278 0.0 0.0 0.00 0.00 0.00 60 1029.5
20240526190202 86 120 0.0 3.0 0.00 0.00 0.00 59 1013.3
20240526190032 86 286 0.0 3.0 0.00 0.00 0.00 60 1029.6
20240526185531 84 335 0.0 0.0 0.00 0.00 0.00 63 1029.8
20240526185202 83 325 2.0 7.0 0.00 0.00 0.00 62 1013.1
20240526185030 84 325 1.0 7.0 0.00 0.00 0.00 61 1029.9
20240526184703 85 316 2.0 3.0 0.00 0.00 0.00 62 1013.4
20240526184527 86 296 1.0 2.0 0.00 0.00 0.00 65 1030.0
20240526184202 85 340 0.0 0.0 0.00 0.00 0.00 61 1013.5
20240526184025 85 340 0.0 0.0 0.00 0.00 0.00 60 1029.8
20240526183702 84 333 0.0 3.0 0.00 0.00 0.00 65 1013.2
20240526183524 84 343 0.0 0.0 0.00 0.00 0.00 65 1030.2
20240526183203 84 63 0.0 3.0 0.00 0.00 0.00 63 1013.3
20240526183024 84 352 0.0 0.0 0.00 0.00 0.00 72 1030.0
20240526182703 83 351 0.0 1.0 0.00 0.00 0.00 66 1013.5
20240526182523 84 330 0.0 2.0 0.00 0.00 0.00 67 1030.2
20240526182020 84 68 0.0 5.0 0.00 0.00 0.00 67 1030.2
20240526181703 85 198 1.0 3.0 0.00 0.00 0.00 66 1013.4
20240526181519 85 157 0.0 3.0 0.00 0.00 0.00 65 1030.3
20240526181203 85 57 0.0 5.0 0.00 0.00 0.00 67 1013.7
20240526181018 85 57 0.0 0.0 0.00 0.00 0.00 66 1030.5
20240526180702 85 202 1.0 5.0 0.00 0.00 0.00 69 1013.5
20240526180516 84 294 0.0 0.0 0.00 0.00 0.00 69 1030.5
20240526180202 83 32 0.0 3.0 0.00 0.00 0.00 66 1013.7
20240526180015 83 31 0.0 3.0 0.00 0.00 0.00 67 1030.3
20240526175514 83 77 1.0 2.0 0.00 0.00 0.00 71 1030.3
20240526175203 83 94 0.0 3.0 0.00 0.00 0.00 69 1013.8
20240526175013 83 154 0.0 0.0 0.00 0.00 0.00 71 1030.3
20240526174703 83 173 0.0 5.0 0.00 0.00 0.00 70 1013.6
20240526174511 83 173 0.0 0.0 0.00 0.00 0.00 66 1030.5
20240526174203 83 93 2.0 5.0 0.00 0.00 0.00 66 1013.5
20240526174009 82 219 0.0 3.0 0.00 0.00 0.00 71 1030.2
20240526173508 83 173 0.0 3.0 0.00 0.00 0.00 64 1030.3
20240526173202 83 173 0.0 1.0 0.00 0.00 0.00 65 1013.7
20240526173007 83 173 0.0 0.0 0.00 0.00 0.00 63 1030.5
20240526172505 83 146 0.0 2.0 0.00 0.00 0.00 64 1030.6
20240526172203 82 262 0.0 0.0 0.00 0.00 0.00 66 1014.0
20240526172003 82 262 0.0 0.0 0.00 0.00 0.00 70 1030.6
20240526171503 82 213 0.0 0.0 0.00 0.00 0.00 73 1030.8
20240526171203 82 225 0.0 5.0 0.00 0.00 0.00 70 1013.9
20240526171002 81 312 0.0 0.0 0.00 0.00 0.00 74 1030.3
20240526170703 80 316 1.0 5.0 0.00 0.00 0.00 70 1013.8
20240526170501 80 312 0.0 0.0 0.00 0.00 0.00 75 1030.5
20240526170202 79 304 1.0 5.0 0.00 0.00 0.00 74 1013.8
20240526170001 79 277 0.0 0.0 0.00 0.00 0.00 75 1030.3
20240526165500 79 45 1.0 7.0 0.00 0.00 0.00 75 1030.4
20240526165202 78 8 0.0 3.0 0.00 0.00 0.00 75 1014.0
20240526164959 78 313 0.0 0.0 0.00 0.00 0.00 76 1030.4
20240526164703 79 336 1.0 5.0 0.00 0.00 0.00 73 1013.9
20240526164457 80 344 1.0 5.0 0.00 0.00 0.00 73 1030.8
20240526164203 80 76 1.0 5.0 0.00 0.00 0.00 72 1014.1
20240526163957 80 12 0.0 2.0 0.00 0.00 0.00 74 1030.7
20240526163455 80 340 0.0 0.0 0.00 0.00 0.00 75 1031.0
20240526163203 79 338 0.0 3.0 0.00 0.00 0.00 71 1014.3
20240526162955 79 108 0.0 3.0 0.00 0.00 0.00 74 1030.9
20240526162703 78 357 0.0 8.0 0.00 0.00 0.00 73 1014.2
20240526162454 78 34 0.0 5.0 0.00 0.00 0.00 73 1031.1
20240526162203 78 16 0.0 5.0 0.00 0.00 0.00 76 1014.5
20240526161953 78 40 0.0 5.0 0.00 0.00 0.00 76 1031.0
20240526161453 80 73 1.0 5.0 0.00 0.00 0.00 72 1031.1
20240526161203 80 348 0.0 1.0 0.00 0.00 0.00 74 1014.7
20240526160952 79 14 0.0 2.0 0.00 0.00 0.00 74 1031.3
20240526160702 79 305 0.0 3.0 0.00 0.00 0.00 73 1014.8
20240526160449 80 305 0.0 3.0 0.00 0.00 0.00 74 1031.4
20240526160203 79 297 1.0 7.0 0.00 0.00 0.00 75 1014.7
20240526155948 79 325 1.0 5.0 0.00 0.00 0.00 76 1031.4
20240526155703 79 339 1.0 7.0 0.00 0.00 0.00 74 1014.8
20240526155447 79 10 3.0 7.0 0.00 0.00 0.00 76 1031.5
20240526154945 79 325 3.0 7.0 0.00 0.00 0.00 79 1031.5
20240526154703 79 309 0.0 0.0 0.00 0.00 0.00 71 1014.7
20240526154443 78 309 0.0 0.0 0.00 0.00 0.00 71 1031.4
20240526154202 77 317 0.0 0.0 0.00 0.00 0.00 73 1014.9
20240526153941 77 317 0.0 0.0 0.00 0.00 0.00 74 1031.6
20240526153441 77 317 0.0 0.0 0.00 0.00 0.00 75 1031.6
20240526153203 77 292 0.0 3.0 0.00 0.00 0.00 75 1014.6
20240526152941 77 323 0.0 2.0 0.00 0.00 0.00 76 1031.3
20240526152703 77 307 0.0 3.0 0.00 0.00 0.00 77 1014.6
20240526152440 77 300 0.0 2.0 0.00 0.00 0.00 75 1031.1
20240526152203 78 325 0.0 7.0 0.00 0.00 0.00 74 1014.5
20240526151939 78 347 0.0 7.0 0.00 0.00 0.00 76 1031.2
20240526151703 78 304 2.0 7.0 0.00 0.00 0.00 75 1014.3
20240526151437 78 302 2.0 7.0 0.00 0.00 0.00 74 1030.9
20240526151202 77 344 0.0 3.0 0.00 0.00 0.00 78 1014.4
20240526150936 77 321 0.0 0.0 0.00 0.00 0.00 75 1030.9
20240526150703 77 339 2.0 8.0 0.00 0.00 0.00 77 1013.9
20240526150435 77 34 3.0 7.0 0.00 0.00 0.00 79 1030.8
20240526150202 77 357 3.0 8.0 0.00 0.00 0.00 75 1014.2
20240526145934 77 52 0.0 5.0 0.00 0.00 0.00 77 1030.7
20240526145703 78 76 3.0 10.0 0.00 0.00 0.00 76 1014.1
20240526145434 78 358 4.0 7.0 0.00 0.00 0.00 77 1030.9
20240526145203 77 323 0.0 10.0 0.00 0.00 0.00 74 1014.3
20240526144933 78 87 0.0 3.0 0.00 0.00 0.00 71 1031.1
20240526144703 78 238 0.0 3.0 0.00 0.00 0.00 73 1014.4
20240526144433 77 233 0.0 3.0 0.00 0.00 0.00 72 1031.1
20240526144203 77 68 1.0 7.0 0.00 0.00 0.00 75 1014.2
20240526143932 77 95 2.0 5.0 0.00 0.00 0.00 74 1030.9
20240526143703 77 80 3.0 7.0 0.00 0.00 0.00 71 1014.4
20240526143429 78 91 5.0 7.0 0.00 0.00 0.00 70 1031.0
20240526143203 78 265 0.0 0.0 0.00 0.00 0.00 72 1014.5
20240526142928 78 324 0.0 0.0 0.00 0.00 0.00 75 1030.9
20240526142428 77 10 0.0 0.0 0.00 0.00 0.00 71 1031.2
20240526142203 76 10 0.0 5.0 0.00 0.00 0.00 75 1014.5
20240526141926 75 39 0.0 3.0 0.00 0.00 0.00 76 1031.0
20240526141703 75 348 3.0 8.0 0.00 0.00 0.00 76 1014.2
20240526141425 76 332 0.0 3.0 0.00 0.00 0.00 77 1030.8
20240526141204 76 73 0.0 7.0 0.00 0.00 0.00 76 1014.2
20240526140923 76 21 0.0 3.0 0.00 0.00 0.00 77 1031.0
20240526140703 76 158 3.0 7.0 0.00 0.00 0.00 75 1014.3
20240526140423 76 18 0.0 5.0 0.00 0.00 0.00 77 1030.8
20240526140203 76 192 2.0 7.0 0.00 0.00 0.00 75 1014.1
20240526135921 75 21 0.0 3.0 0.00 0.00 0.00 79 1030.8
20240526135702 75 340 0.0 7.0 0.00 0.00 0.00 78 1014.2
20240526135421 76 353 3.0 7.0 0.00 0.00 0.00 77 1030.9
20240526135202 76 336 0.0 5.0 0.00 0.00 0.00 76 1014.0
20240526134921 76 329 0.0 2.0 0.00 0.00 0.00 76 1030.8
20240526134703 76 56 1.0 10.0 0.00 0.00 0.00 78 1013.9
20240526134420 76 93 0.0 8.0 0.00 0.00 0.00 77 1030.7
20240526134203 77 121 4.0 7.0 0.00 0.00 0.00 74 1013.9
20240526133919 77 86 1.0 3.0 0.00 0.00 0.00 78 1030.6
20240526133703 76 279 0.0 0.0 0.00 0.00 0.00 74 1013.9
20240526133419 75 269 0.0 0.0 0.00 0.00 0.00 77 1030.6
20240526133203 75 357 0.0 7.0 0.00 0.00 0.00 76 1014.0
20240526132918 74 353 1.0 5.0 0.00 0.00 0.00 77 1030.8
20240526132703 75 345 1.0 7.0 0.00 0.00 0.00 77 1013.8
20240526132416 75 342 6.0 7.0 0.00 0.00 0.00 77 1030.5
20240526132203 75 34 1.0 8.0 0.00 0.00 0.00 78 1013.9
20240526131914 75 350 7.0 8.0 0.00 0.00 0.00 76 1030.5
20240526131413 75 18 0.0 2.0 0.00 0.00 0.00 77 1030.6
20240526131203 75 342 0.0 3.0 0.00 0.00 0.00 78 1013.9
20240526130912 74 7 0.0 0.0 0.00 0.00 0.00 79 1030.5
20240526130703 74 331 0.0 7.0 0.00 0.00 0.00 79 1013.9
20240526130411 74 44 0.0 5.0 0.00 0.00 0.00 79 1030.6
20240526130203 74 339 2.0 7.0 0.00 0.00 0.00 78 1013.9
20240526125910 75 340 2.0 3.0 0.00 0.00 0.00 77 1030.5
20240526125703 75 69 0.0 3.0 0.00 0.00 0.00 78 1013.8
20240526125408 75 67 2.0 3.0 0.00 0.00 0.00 79 1030.7
20240526125203 75 41 0.0 1.0 0.00 0.00 0.00 81 1014.0
20240526124907 74 43 2.0 2.0 0.00 0.00 0.00 81 1030.6
20240526124703 74 7 0.0 1.0 0.00 0.00 0.00 83 1014.1
20240526124407 75 88 0.0 0.0 0.00 0.00 0.00 81 1030.8
20240526124203 74 273 0.0 1.0 0.00 0.00 0.00 81 1013.8
20240526123905 74 344 1.0 2.0 0.00 0.00 0.00 81 1030.5
20240526123404 74 343 0.0 0.0 0.00 0.00 0.00 83 1030.5
20240526123203 75 343 0.0 1.0 0.00 0.00 0.00 81 1013.6
20240526122903 75 343 0.0 0.0 0.00 0.00 0.00 82 1030.4
20240526122703 73 343 0.0 1.0 0.00 0.00 0.00 82 1013.8
20240526122401 73 343 0.0 2.0 0.00 0.00 0.00 85 1030.3
20240526121900 72 343 0.0 0.0 0.00 0.00 0.00 86 1030.3
20240526121703 72 343 0.0 0.0 0.00 0.00 0.00 86 1013.8
20240526121400 72 343 0.0 0.0 0.00 0.00 0.00 86 1030.4
20240526121203 71 343 0.0 0.0 0.00 0.00 0.00 88 1013.7
20240526120859 71 343 0.0 0.0 0.00 0.00 0.00 88 1030.3
20240526120703 71 343 0.0 0.0 0.00 0.00 0.00 86 1013.8
20240526120358 71 343 0.0 0.0 0.00 0.00 0.00 87 1030.6
20240526120203 72 343 0.0 0.0 0.00 0.00 0.00 85 1013.6
20240526115857 71 343 0.0 0.0 0.00 0.00 0.00 87 1030.5
20240526115704 71 343 0.0 0.0 0.00 0.00 0.00 88 1013.7
20240526115356 70 343 0.0 0.0 0.00 0.00 0.00 89 1030.5
20240526115203 70 323 0.0 0.0 0.00 0.00 0.00 90 1014.0
20240526114855 70 311 0.0 0.0 0.00 0.00 0.00 90 1030.5
20240526114703 69 311 0.0 0.0 0.00 0.00 0.00 90 1013.9
20240526114353 69 311 0.0 0.0 0.00 0.00 0.00 91 1030.5
20240526114203 68 311 0.0 0.0 0.00 0.00 0.00 93 1013.7
20240526113852 68 311 0.0 0.0 0.00 0.00 0.00 93 1030.4
20240526113704 67 311 0.0 0.0 0.00 0.00 0.00 94 1013.8
20240526113352 67 311 0.0 0.0 0.00 0.00 0.00 95 1030.3
20240526112851 66 312 0.0 0.0 0.00 0.00 0.00 99 1030.3
20240526112703 66 312 0.0 0.0 0.00 0.00 0.00 99 1013.7
20240526112350 65 312 0.0 0.0 0.00 0.00 0.00 99 1030.1
20240526112204 65 312 0.0 0.0 0.00 0.00 0.00 99 1013.6
20240526111848 65 312 0.0 0.0 0.00 0.00 0.00 99 1030.1
20240526111703 65 312 0.0 0.0 0.00 0.00 0.00 99 1013.7
20240526111347 64 312 0.0 0.0 0.00 0.00 0.00 99 1030.5
20240526110845 64 311 0.0 0.0 0.00 0.00 0.00 99 1030.7
20240526110345 63 311 0.0 0.0 0.00 0.00 0.00 99 1030.7
20240526110203 63 311 0.0 3.0 0.00 0.00 0.00 99 1013.9
20240526105844 63 313 0.0 2.0 0.00 0.00 0.00 99 1030.6
20240526105703 63 302 0.0 0.0 0.00 0.00 0.00 99 1013.8
20240526105342 64 302 0.0 0.0 0.00 0.00 0.00 99 1030.4
20240526105203 64 302 0.0 0.0 0.00 0.00 0.00 99 1013.9
20240526104842 63 302 0.0 0.0 0.00 0.00 0.00 99 1030.6
20240526104703 63 302 0.0 0.0 0.00 0.00 0.00 99 1013.6
20240526104342 62 302 0.0 0.0 0.00 0.00 0.00 99 1030.3
20240526104203 62 302 0.0 0.0 0.00 0.00 0.00 99 1013.7
20240526103841 62 302 0.0 0.0 0.00 0.00 0.00 99 1030.2
20240526103703 62 302 0.0 0.0 0.00 0.00 0.00 99 1013.6
20240526103340 62 302 0.0 0.0 0.00 0.00 0.00 99 1030.3
20240526102838 62 303 0.0 0.0 0.00 0.00 0.00 99 1030.4
20240526102703 62 305 0.0 0.0 0.00 0.00 0.00 99 1013.6
20240526102337 62 305 0.0 0.0 0.00 0.00 0.00 99 1030.1
20240526102203 62 305 0.0 0.0 0.00 0.00 0.00 99 1013.3
20240526101837 62 305 0.0 0.0 0.00 0.00 0.00 99 1030.0
20240526101703 62 305 0.0 0.0 0.00 0.00 0.00 99 1013.6
20240526101336 62 305 0.0 0.0 0.00 0.00 0.00 99 1030.1
20240526100835 62 305 0.0 0.0 0.00 0.00 0.00 99 1029.7
20240526100333 62 305 0.0 0.0 0.00 0.00 0.00 99 1029.7
20240526100203 62 301 0.0 0.0 0.00 0.00 0.00 99 1013.0
20240526095832 62 299 0.0 0.0 0.00 0.00 0.00 99 1029.7
20240526095703 62 299 0.0 0.0 0.00 0.00 0.00 99 1012.9
20240526095331 62 299 0.0 0.0 0.00 0.00 0.00 99 1029.9
20240526095203 62 299 0.0 0.0 0.00 0.00 0.00 99 1013.2
20240526094830 62 299 0.0 0.0 0.00 0.00 0.00 99 1029.7
20240526094330 62 299 0.0 0.0 0.00 0.00 0.00 99 1029.6
20240526094203 62 299 0.0 0.0 0.00 0.00 0.00 99 1012.9
20240526093828 62 299 0.0 0.0 0.00 0.00 0.00 99 1029.5
20240526093328 62 297 0.0 0.0 0.00 0.00 0.00 99 1029.5
20240526093204 62 313 0.0 0.0 0.00 0.00 0.00 99 1012.9
20240526092826 62 323 0.0 0.0 0.00 0.00 0.00 99 1029.5
20240526092703 62 322 0.0 0.0 0.00 0.00 0.00 99 1012.7
20240526092325 62 322 0.0 0.0 0.00 0.00 0.00 99 1029.4
20240526092203 62 322 0.0 0.0 0.00 0.00 0.00 99 1012.8
20240526091823 62 322 0.0 0.0 0.00 0.00 0.00 99 1029.4
20240526091703 62 322 0.0 0.0 0.00 0.00 0.00 99 1012.8
20240526091321 63 322 0.0 0.0 0.00 0.00 0.00 99 1029.4
20240526091203 63 322 0.0 0.0 0.00 0.00 0.00 99 1012.6
20240526090821 63 322 0.0 0.0 0.00 0.00 0.00 99 1029.4
20240526090703 63 322 0.0 0.0 0.00 0.00 0.00 99 1012.7
20240526090319 63 322 0.0 0.0 0.00 0.00 0.00 99 1029.4
20240526090203 63 322 0.0 0.0 0.00 0.00 0.00 99 1012.5
20240526085817 63 322 0.0 0.0 0.00 0.00 0.00 99 1029.2
20240526085704 63 322 0.0 0.0 0.00 0.00 0.00 99 1012.6
20240526085316 63 322 0.0 0.0 0.00 0.00 0.00 99 1029.1
20240526085203 63 322 0.0 0.0 0.00 0.00 0.00 99 1012.5
20240526084815 62 322 0.0 0.0 0.00 0.00 0.00 99 1029.2
20240526084314 63 322 0.0 0.0 0.00 0.00 0.00 99 1029.1
20240526084203 63 322 0.0 0.0 0.00 0.00 0.00 99 1012.5
20240526083812 63 322 0.0 0.0 0.00 0.00 0.00 99 1029.1
20240526083703 63 322 0.0 0.0 0.00 0.00 0.00 99 1012.3
20240526083311 63 322 0.0 0.0 0.00 0.00 0.00 99 1029.1
20240526083203 63 322 0.0 0.0 0.00 0.00 0.00 99 1012.4
20240526082810 63 322 0.0 0.0 0.00 0.00 0.00 99 1029.1
20240526082703 63 322 0.0 0.0 0.00 0.00 0.00 99 1012.5
20240526082308 63 322 0.0 0.0 0.00 0.00 0.00 99 1029.3
20240526082203 63 322 0.0 0.0 0.00 0.00 0.00 99 1012.5
20240526081806 63 322 0.0 0.0 0.00 0.00 0.00 99 1029.3
20240526081704 63 322 0.0 0.0 0.00 0.00 0.00 99 1012.6
20240526081305 63 322 0.0 0.0 0.00 0.00 0.00 99 1029.3
20240526080804 63 322 0.0 0.0 0.00 0.00 0.00 99 1029.1
20240526080304 63 322 0.0 0.0 0.00 0.00 0.00 99 1029.2
20240526075802 63 322 0.0 0.0 0.00 0.00 0.00 99 1029.2
20240526075703 63 322 0.0 0.0 0.00 0.00 0.00 99 1012.5
20240526075301 63 322 0.0 0.0 0.00 0.00 0.00 99 1029.2
20240526075203 63 322 0.0 0.0 0.00 0.00 0.00 99 1012.4
20240526074759 63 322 0.0 0.0 0.00 0.00 0.00 99 1029.1
20240526074704 63 322 0.0 0.0 0.00 0.00 0.00 99 1012.5
20240526074258 63 322 0.0 0.0 0.00 0.00 0.00 99 1029.0
20240526073756 63 322 0.0 0.0 0.00 0.00 0.00 99 1029.0
20240526073256 63 321 0.0 0.0 0.00 0.00 0.00 99 1029.2
20240526073204 63 321 0.0 0.0 0.00 0.00 0.00 99 1012.2
20240526072754 63 321 0.0 0.0 0.00 0.00 0.00 99 1029.0
20240526072703 63 321 0.0 0.0 0.00 0.00 0.00 99 1012.4
20240526072253 63 321 0.0 0.0 0.00 0.00 0.00 99 1029.1
20240526072204 63 321 0.0 0.0 0.00 0.00 0.00 99 1012.3
20240526071750 63 321 0.0 0.0 0.00 0.00 0.00 99 1029.2
20240526071703 63 321 0.0 0.0 0.00 0.00 0.00 99 1012.5